Retour au catalogue

H-3 R/B

ActifGTO
NORAD 100271·ROCKET BODY·🇯🇵 Japan

Lancé Aug 10, 2026 depuis Tanegashima Space Center

Loading…

TLE

VieillissantSource: Space-Track

Époque: Sep 14, 2026, 12:27 UTC

1 A0271U 26182B   26257.51912612  .00043788 -31604-6  10642-2 0  9994
2 A0271  22.5932 278.3162 7251288 200.2713 100.6605  2.36403740   830

Suivez H-3 R/B en temps réel avec AllMySat

Download on the App Store